FREQUENCY,Transmission
 1295000000 ,-034.195
 1295150000 ,-034.141
 1295300000 ,-034.086
 1295450000 ,-034.035
 1295600000 ,-033.988
 1295750000 ,-033.947
 1295900000 ,-033.918
 1296050000 ,-033.898
 1296200000 ,-033.889
 1296350000 ,-033.893
 1296500000 ,-033.914
 1296650000 ,-033.953
 1296800000 ,-034.016
 1296950000 ,-034.094
 1297100000 ,-034.186
 1297250000 ,-034.293
 1297400000 ,-034.410
 1297550000 ,-034.543
 1297700000 ,-034.680
 1297850000 ,-034.822
 1298000000 ,-034.971
 1298150000 ,-035.123
 1298300000 ,-035.273
 1298450000 ,-035.424
 1298600000 ,-035.572
 1298750000 ,-035.725
 1298900000 ,-035.875
 1299050000 ,-036.023
 1299200000 ,-036.172
 1299350000 ,-036.318
 1299500000 ,-036.461
 1299650000 ,-036.611
 1299800000 ,-036.760
 1299950000 ,-036.908
 1300100000 ,-037.051
 1300250000 ,-037.193
 1300400000 ,-037.332
 1300550000 ,-037.467
 1300700000 ,-037.594
 1300850000 ,-037.715
 1301000000 ,-037.828
 1301150000 ,-037.928
 1301300000 ,-038.016
 1301450000 ,-038.088
 1301600000 ,-038.150
 1301750000 ,-038.199
 1301900000 ,-038.236
 1302050000 ,-038.268
 1302200000 ,-038.285
 1302350000 ,-038.297
 1302500000 ,-038.303
 1302650000 ,-038.307
 1302800000 ,-038.309
 1302950000 ,-038.307
 1303100000 ,-038.311
 1303250000 ,-038.322
 1303400000 ,-038.338
 1303550000 ,-038.367
 1303700000 ,-038.404
 1303850000 ,-038.451
 1304000000 ,-038.512
 1304150000 ,-038.586
 1304300000 ,-038.674
 1304450000 ,-038.775
 1304600000 ,-038.889
 1304750000 ,-039.012
 1304900000 ,-039.143
 1305050000 ,-039.285
 1305200000 ,-039.438
 1305350000 ,-039.592
 1305500000 ,-039.756
 1305650000 ,-039.918
 1305800000 ,-040.082
 1305950000 ,-040.244
 1306100000 ,-040.406
 1306250000 ,-040.570
 1306400000 ,-040.732
 1306550000 ,-040.891
 1306700000 ,-041.047
 1306850000 ,-041.197
 1307000000 ,-041.342
 1307150000 ,-041.484
 1307300000 ,-041.623
 1307450000 ,-041.762
 1307600000 ,-041.895
 1307750000 ,-042.027
 1307900000 ,-042.158
 1308050000 ,-042.287
 1308200000 ,-042.412
 1308350000 ,-042.537
 1308500000 ,-042.654
 1308650000 ,-042.770
 1308800000 ,-042.879
 1308950000 ,-042.982
 1309100000 ,-043.080
 1309250000 ,-043.172
 1309400000 ,-043.266
 1309550000 ,-043.352
 1309700000 ,-043.434
 1309850000 ,-043.516
 1310000000 ,-043.590
 1310150000 ,-043.666
 1310300000 ,-043.742
 1310450000 ,-043.814
 1310600000 ,-043.885
 1310750000 ,-043.959
 1310900000 ,-044.033
 1311050000 ,-044.111
 1311200000 ,-044.188
 1311350000 ,-044.268
 1311500000 ,-044.352
 1311650000 ,-044.439
 1311800000 ,-044.525
 1311950000 ,-044.609
 1312100000 ,-044.705
 1312250000 ,-044.795
 1312400000 ,-044.879
 1312550000 ,-044.961
 1312700000 ,-045.039
 1312850000 ,-045.111
 1313000000 ,-045.176
 1313150000 ,-045.234
 1313300000 ,-045.285
 1313450000 ,-045.314
 1313600000 ,-045.328
 1313750000 ,-045.324
 1313900000 ,-045.301
 1314050000 ,-045.250
 1314200000 ,-045.182
 1314350000 ,-045.088
 1314500000 ,-044.971
 1314650000 ,-044.824
 1314800000 ,-044.650
 1314950000 ,-044.449
 1315100000 ,-044.225
 1315250000 ,-043.965
 1315400000 ,-043.680
 1315550000 ,-043.369
 1315700000 ,-043.031
 1315850000 ,-042.668
 1316000000 ,-042.293
 1316150000 ,-041.906
 1316300000 ,-041.514
 1316450000 ,-041.115
 1316600000 ,-040.725
 1316750000 ,-040.338
 1316900000 ,-039.967
 1317050000 ,-039.607
 1317200000 ,-039.268
 1317350000 ,-038.945
 1317500000 ,-038.645
 1317650000 ,-038.361
 1317800000 ,-038.096
 1317950000 ,-037.844
 1318100000 ,-037.602
 1318250000 ,-037.367
 1318400000 ,-037.143
 1318550000 ,-036.916
 1318700000 ,-036.689
 1318850000 ,-036.463
 1319000000 ,-036.229
 1319150000 ,-035.986
 1319300000 ,-035.734
 1319450000 ,-035.471
 1319600000 ,-035.195
 1319750000 ,-034.904
 1319900000 ,-034.600
 1320050000 ,-034.271
 1320200000 ,-033.920
 1320350000 ,-033.545
 1320500000 ,-033.145
 1320650000 ,-032.717
 1320800000 ,-032.266
 1320950000 ,-031.790
 1321100000 ,-031.299
 1321250000 ,-030.795
 1321400000 ,-030.282
 1321550000 ,-029.770
 1321700000 ,-029.260
 1321850000 ,-028.754
 1322000000 ,-028.254
 1322150000 ,-027.758
 1322300000 ,-027.269
 1322450000 ,-026.788
 1322600000 ,-026.321
 1322750000 ,-025.871
 1322900000 ,-025.440
 1323050000 ,-025.037
 1323200000 ,-024.664
 1323350000 ,-024.326
 1323500000 ,-024.022
 1323650000 ,-023.751
 1323800000 ,-023.508
 1323950000 ,-023.289
 1324100000 ,-023.089
 1324250000 ,-022.902
 1324400000 ,-022.725
 1324550000 ,-022.552
 1324700000 ,-022.383
 1324850000 ,-022.214
 1325000000 ,-022.044
 1325150000 ,-021.870
 1325300000 ,-021.689
 1325450000 ,-021.500
 1325600000 ,-021.300
 1325750000 ,-021.087
 1325900000 ,-020.862
 1326050000 ,-020.625
 1326200000 ,-020.376
 1326350000 ,-020.116
 1326500000 ,-019.847
 1326650000 ,-019.571
 1326800000 ,-019.288
 1326950000 ,-019.002
 1327100000 ,-018.714
 1327250000 ,-018.426
 1327400000 ,-018.142
 1327550000 ,-017.864
 1327700000 ,-017.597
 1327850000 ,-017.341
 1328000000 ,-017.100
 1328150000 ,-016.874
 1328300000 ,-016.666
 1328450000 ,-016.473
 1328600000 ,-016.294
 1328750000 ,-016.130
 1328900000 ,-015.974
 1329050000 ,-015.828
 1329200000 ,-015.689
 1329350000 ,-015.560
 1329500000 ,-015.432
 1329650000 ,-015.310
 1329800000 ,-015.189
 1329950000 ,-015.068
 1330100000 ,-014.945
 1330250000 ,-014.821
 1330400000 ,-014.694
 1330550000 ,-014.566
 1330700000 ,-014.438
 1330850000 ,-014.307
 1331000000 ,-014.174
 1331150000 ,-014.041
 1331300000 ,-013.905
 1331450000 ,-013.768
 1331600000 ,-013.631
 1331750000 ,-013.493
 1331900000 ,-013.353
 1332050000 ,-013.210
 1332200000 ,-013.066
 1332350000 ,-012.924
 1332500000 ,-012.782
 1332650000 ,-012.644
 1332800000 ,-012.510
 1332950000 ,-012.377
 1333100000 ,-012.243
 1333250000 ,-012.104
 1333400000 ,-011.962
 1333550000 ,-011.814
 1333700000 ,-011.660
 1333850000 ,-011.500
 1334000000 ,-011.336
 1334150000 ,-011.166
 1334300000 ,-010.989
 1334450000 ,-010.808
 1334600000 ,-010.625
 1334750000 ,-010.438
 1334900000 ,-010.248
 1335050000 ,-010.059
 1335200000 ,-009.868
 1335350000 ,-009.678
 1335500000 ,-009.490
 1335650000 ,-009.307
 1335800000 ,-009.132
 1335950000 ,-008.965
 1336100000 ,-008.810
 1336250000 ,-008.664
 1336400000 ,-008.529
 1336550000 ,-008.401
 1336700000 ,-008.279
 1336850000 ,-008.160
 1337000000 ,-008.039
 1337150000 ,-007.917
 1337300000 ,-007.793
 1337450000 ,-007.665
 1337600000 ,-007.534
 1337750000 ,-007.399
 1337900000 ,-007.260
 1338050000 ,-007.119
 1338200000 ,-006.975
 1338350000 ,-006.828
 1338500000 ,-006.677
 1338650000 ,-006.523
 1338800000 ,-006.365
 1338950000 ,-006.202
 1339100000 ,-006.038
 1339250000 ,-005.875
 1339400000 ,-005.715
 1339550000 ,-005.560
 1339700000 ,-005.411
 1339850000 ,-005.268
 1340000000 ,-005.132
 1340150000 ,-005.002
 1340300000 ,-004.878
 1340450000 ,-004.760
 1340600000 ,-004.646
 1340750000 ,-004.538
 1340900000 ,-004.434
 1341050000 ,-004.335
 1341200000 ,-004.240
 1341350000 ,-004.150
 1341500000 ,-004.064
 1341650000 ,-003.983
 1341800000 ,-003.905
 1341950000 ,-003.832
 1342100000 ,-003.762
 1342250000 ,-003.696
 1342400000 ,-003.633
 1342550000 ,-003.573
 1342700000 ,-003.516
 1342850000 ,-003.462
 1343000000 ,-003.410
 1343150000 ,-003.361
 1343300000 ,-003.314
 1343450000 ,-003.268
 1343600000 ,-003.226
 1343750000 ,-003.186
 1343900000 ,-003.147
 1344050000 ,-003.111
 1344200000 ,-003.076
 1344350000 ,-003.043
 1344500000 ,-003.011
 1344650000 ,-002.981
 1344800000 ,-002.952
 1344950000 ,-002.924
 1345100000 ,-002.898
 1345250000 ,-002.873
 1345400000 ,-002.848
 1345550000 ,-002.826
 1345700000 ,-002.804
 1345850000 ,-002.784
 1346000000 ,-002.765
 1346150000 ,-002.746
 1346300000 ,-002.728
 1346450000 ,-002.711
 1346600000 ,-002.695
 1346750000 ,-002.679
 1346900000 ,-002.665
 1347050000 ,-002.650
 1347200000 ,-002.637
 1347350000 ,-002.623
 1347500000 ,-002.610
 1347650000 ,-002.597
 1347800000 ,-002.584
 1347950000 ,-002.572
 1348100000 ,-002.560
 1348250000 ,-002.547
 1348400000 ,-002.535
 1348550000 ,-002.523
 1348700000 ,-002.511
 1348850000 ,-002.500
 1349000000 ,-002.489
 1349150000 ,-002.477
 1349300000 ,-002.467
 1349450000 ,-002.455
 1349600000 ,-002.445
 1349750000 ,-002.434
 1349900000 ,-002.424
 1350050000 ,-002.415
 1350200000 ,-002.406
 1350350000 ,-002.397
 1350500000 ,-002.388
 1350650000 ,-002.380
 1350800000 ,-002.372
 1350950000 ,-002.364
 1351100000 ,-002.356
 1351250000 ,-002.349
 1351400000 ,-002.343
 1351550000 ,-002.337
 1351700000 ,-002.330
 1351850000 ,-002.324
 1352000000 ,-002.318
 1352150000 ,-002.313
 1352300000 ,-002.307
 1352450000 ,-002.302
 1352600000 ,-002.297
 1352750000 ,-002.293
 1352900000 ,-002.289
 1353050000 ,-002.285
 1353200000 ,-002.282
 1353350000 ,-002.279
 1353500000 ,-002.276
 1353650000 ,-002.274
 1353800000 ,-002.273
 1353950000 ,-002.272
 1354100000 ,-002.272
 1354250000 ,-002.272
 1354400000 ,-002.273
 1354550000 ,-002.276
 1354700000 ,-002.279
 1354850000 ,-002.283
 1355000000 ,-002.287
 1355150000 ,-002.293
 1355300000 ,-002.299
 1355450000 ,-002.306
 1355600000 ,-002.314
 1355750000 ,-002.324
 1355900000 ,-002.336
 1356050000 ,-002.350
 1356200000 ,-002.365
 1356350000 ,-002.380
 1356500000 ,-002.396
 1356650000 ,-002.413
 1356800000 ,-002.430
 1356950000 ,-002.447
 1357100000 ,-002.464
 1357250000 ,-002.480
 1357400000 ,-002.495
 1357550000 ,-002.509
 1357700000 ,-002.522
 1357850000 ,-002.535
 1358000000 ,-002.546
 1358150000 ,-002.556
 1358300000 ,-002.565
 1358450000 ,-002.572
 1358600000 ,-002.578
 1358750000 ,-002.582
 1358900000 ,-002.586
 1359050000 ,-002.590
 1359200000 ,-002.593
 1359350000 ,-002.596
 1359500000 ,-002.600
 1359650000 ,-002.605
 1359800000 ,-002.611
 1359950000 ,-002.619
 1360100000 ,-002.629
 1360250000 ,-002.639
 1360400000 ,-002.652
 1360550000 ,-002.666
 1360700000 ,-002.682
 1360850000 ,-002.700
 1361000000 ,-002.720
 1361150000 ,-002.741
 1361300000 ,-002.764
 1361450000 ,-002.789
 1361600000 ,-002.815
 1361750000 ,-002.842
 1361900000 ,-002.869
 1362050000 ,-002.897
 1362200000 ,-002.924
 1362350000 ,-002.952
 1362500000 ,-002.980
 1362650000 ,-003.008
 1362800000 ,-003.037
 1362950000 ,-003.065
 1363100000 ,-003.093
 1363250000 ,-003.122
 1363400000 ,-003.150
 1363550000 ,-003.177
 1363700000 ,-003.204
 1363850000 ,-003.232
 1364000000 ,-003.259
 1364150000 ,-003.286
 1364300000 ,-003.313
 1364450000 ,-003.341
 1364600000 ,-003.371
 1364750000 ,-003.401
 1364900000 ,-003.433
 1365050000 ,-003.465
 1365200000 ,-003.497
 1365350000 ,-003.531
 1365500000 ,-003.566
 1365650000 ,-003.601
 1365800000 ,-003.637
 1365950000 ,-003.674
 1366100000 ,-003.713
 1366250000 ,-003.754
 1366400000 ,-003.795
 1366550000 ,-003.838
 1366700000 ,-003.884
 1366850000 ,-003.931
 1367000000 ,-003.980
 1367150000 ,-004.032
 1367300000 ,-004.087
 1367450000 ,-004.145
 1367600000 ,-004.206
 1367750000 ,-004.270
 1367900000 ,-004.337
 1368050000 ,-004.408
 1368200000 ,-004.482
 1368350000 ,-004.559
 1368500000 ,-004.639
 1368650000 ,-004.722
 1368800000 ,-004.807
 1368950000 ,-004.895
 1369100000 ,-004.986
 1369250000 ,-005.079
 1369400000 ,-005.174
 1369550000 ,-005.273
 1369700000 ,-005.374
 1369850000 ,-005.476
 1370000000 ,-005.581
 1370150000 ,-005.689
 1370300000 ,-005.799
 1370450000 ,-005.912
 1370600000 ,-006.028
 1370750000 ,-006.147
 1370900000 ,-006.270
 1371050000 ,-006.397
 1371200000 ,-006.526
 1371350000 ,-006.660
 1371500000 ,-006.798
 1371650000 ,-006.941
 1371800000 ,-007.086
 1371950000 ,-007.237
 1372100000 ,-007.390
 1372250000 ,-007.546
 1372400000 ,-007.708
 1372550000 ,-007.872
 1372700000 ,-008.040
 1372850000 ,-008.210
 1373000000 ,-008.384
 1373150000 ,-008.561
 1373300000 ,-008.741
 1373450000 ,-008.924
 1373600000 ,-009.109
 1373750000 ,-009.298
 1373900000 ,-009.489
 1374050000 ,-009.681
 1374200000 ,-009.876
 1374350000 ,-010.073
 1374500000 ,-010.271
 1374650000 ,-010.470
 1374800000 ,-010.672
 1374950000 ,-010.875
 1375100000 ,-011.079
 1375250000 ,-011.285
 1375400000 ,-011.492
 1375550000 ,-011.700
 1375700000 ,-011.909
 1375850000 ,-012.118
 1376000000 ,-012.330
 1376150000 ,-012.540
 1376300000 ,-012.752
 1376450000 ,-012.966
 1376600000 ,-013.181
 1376750000 ,-013.396
 1376900000 ,-013.612
 1377050000 ,-013.830
 1377200000 ,-014.048
 1377350000 ,-014.268
 1377500000 ,-014.489
 1377650000 ,-014.711
 1377800000 ,-014.933
 1377950000 ,-015.156
 1378100000 ,-015.379
 1378250000 ,-015.602
 1378400000 ,-015.825
 1378550000 ,-016.047
 1378700000 ,-016.271
 1378850000 ,-016.495
 1379000000 ,-016.717
 1379150000 ,-016.940
 1379300000 ,-017.165
 1379450000 ,-017.388
 1379600000 ,-017.612
 1379750000 ,-017.836
 1379900000 ,-018.062
 1380050000 ,-018.287
 1380200000 ,-018.511
 1380350000 ,-018.736
 1380500000 ,-018.962
 1380650000 ,-019.188
 1380800000 ,-019.416
 1380950000 ,-019.645
 1381100000 ,-019.875
 1381250000 ,-020.105
 1381400000 ,-020.337
 1381550000 ,-020.571
 1381700000 ,-020.805
 1381850000 ,-021.038
 1382000000 ,-021.272
 1382150000 ,-021.508
 1382300000 ,-021.743
 1382450000 ,-021.979
 1382600000 ,-022.214
 1382750000 ,-022.452
 1382900000 ,-022.691
 1383050000 ,-022.933
 1383200000 ,-023.177
 1383350000 ,-023.421
 1383500000 ,-023.667
 1383650000 ,-023.915
 1383800000 ,-024.166
 1383950000 ,-024.421
 1384100000 ,-024.679
 1384250000 ,-024.941
 1384400000 ,-025.212
 1384550000 ,-025.488
 1384700000 ,-025.773
 1384850000 ,-026.065
 1385000000 ,-026.364
 1385150000 ,-026.665
 1385300000 ,-026.964
 1385450000 ,-027.258
 1385600000 ,-027.548
 1385750000 ,-027.832
 1385900000 ,-028.112
 1386050000 ,-028.388
 1386200000 ,-028.655
 1386350000 ,-028.916
 1386500000 ,-029.171
 1386650000 ,-029.423
 1386800000 ,-029.671
 1386950000 ,-029.916
 1387100000 ,-030.157
 1387250000 ,-030.396
 1387400000 ,-030.629
 1387550000 ,-030.862
 1387700000 ,-031.094
 1387850000 ,-031.331
 1388000000 ,-031.576
 1388150000 ,-031.829
 1388300000 ,-032.094
 1388450000 ,-032.365
 1388600000 ,-032.646
 1388750000 ,-032.938
 1388900000 ,-033.232
 1389050000 ,-033.531
 1389200000 ,-033.824
 1389350000 ,-034.107
 1389500000 ,-034.379
 1389650000 ,-034.637
 1389800000 ,-034.879
 1389950000 ,-035.105
 1390100000 ,-035.311
 1390250000 ,-035.502
 1390400000 ,-035.672
 1390550000 ,-035.822
 1390700000 ,-035.951
 1390850000 ,-036.059
 1391000000 ,-036.150
 1391150000 ,-036.221
 1391300000 ,-036.273
 1391450000 ,-036.314
 1391600000 ,-036.338
 1391750000 ,-036.354
 1391900000 ,-036.363
 1392050000 ,-036.363
 1392200000 ,-036.354
 1392350000 ,-036.338
 1392500000 ,-036.313
 1392650000 ,-036.279
 1392800000 ,-036.238
 1392950000 ,-036.191
 1393100000 ,-036.141
 1393250000 ,-036.082
 1393400000 ,-036.020
 1393550000 ,-035.951
 1393700000 ,-035.883
 1393850000 ,-035.816
 1394000000 ,-035.742
 1394150000 ,-035.662
 1394300000 ,-035.576
 1394450000 ,-035.484
 1394600000 ,-035.391
 1394750000 ,-035.295
 1394900000 ,-035.199
 1395050000 ,-035.104
 1395200000 ,-035.008
 1395350000 ,-034.908
 1395500000 ,-034.805
 1395650000 ,-034.699
 1395800000 ,-034.602
 1395950000 ,-034.506
 1396100000 ,-034.420
 1396250000 ,-034.332
 1396400000 ,-034.248
 1396550000 ,-034.174
 1396700000 ,-034.105
 1396850000 ,-034.049
 1397000000 ,-033.996
 1397150000 ,-033.947
 1397300000 ,-033.900
 1397450000 ,-033.852
 1397600000 ,-033.803
 1397750000 ,-033.756
 1397900000 ,-033.713
 1398050000 ,-033.676
 1398200000 ,-033.637
 1398350000 ,-033.596
 1398500000 ,-033.551
 1398650000 ,-033.498
 1398800000 ,-033.445
 1398950000 ,-033.393
 1399100000 ,-033.342
 1399250000 ,-033.295
 1399400000 ,-033.254
 1399550000 ,-033.219
 1399700000 ,-033.186
 1399850000 ,-033.152
 1400000000 ,-033.127
 1400150000 ,-033.102
 1400300000 ,-033.080
 1400450000 ,-033.061
 1400600000 ,-033.045
 1400750000 ,-033.031
 1400900000 ,-033.018
 1401050000 ,-033.002
 1401200000 ,-032.984
 1401350000 ,-032.963
 1401500000 ,-032.934
 1401650000 ,-032.900
 1401800000 ,-032.863
 1401950000 ,-032.820
 1402100000 ,-032.777
 1402250000 ,-032.734
 1402400000 ,-032.697
 1402550000 ,-032.662
 1402700000 ,-032.633
 1402850000 ,-032.609
 1403000000 ,-032.588
 1403150000 ,-032.566
 1403300000 ,-032.549
 1403450000 ,-032.537
 1403600000 ,-032.529
 1403750000 ,-032.523
 1403900000 ,-032.523
 1404050000 ,-032.527
 1404200000 ,-032.533
 1404350000 ,-032.537
 1404500000 ,-032.539
 1404650000 ,-032.543
 1404800000 ,-032.547
 1404950000 ,-032.549
 1405100000 ,-032.547
 1405250000 ,-032.545
 1405400000 ,-032.543
 1405550000 ,-032.543
 1405700000 ,-032.539
 1405850000 ,-032.533
 1406000000 ,-032.521
 1406150000 ,-032.508
 1406300000 ,-032.488
 1406450000 ,-032.467
 1406600000 ,-032.443
 1406750000 ,-032.418
 1406900000 ,-032.391
 1407050000 ,-032.363
 1407200000 ,-032.336
 1407350000 ,-032.314
 1407500000 ,-032.299
 1407650000 ,-032.291
 1407800000 ,-032.289
 1407950000 ,-032.289
 1408100000 ,-032.291
 1408250000 ,-032.297
 1408400000 ,-032.311
 1408550000 ,-032.326
 1408700000 ,-032.342
 1408850000 ,-032.355
 1409000000 ,-032.367
 1409150000 ,-032.377
 1409300000 ,-032.389
 1409450000 ,-032.400
 1409600000 ,-032.412
 1409750000 ,-032.418
 1409900000 ,-032.418
 1410050000 ,-032.412
 1410200000 ,-032.404
 1410350000 ,-032.391
 1410500000 ,-032.379
 1410650000 ,-032.365
 1410800000 ,-032.359
 1410950000 ,-032.354
 1411100000 ,-032.354
 1411250000 ,-032.363
 1411400000 ,-032.377
 1411550000 ,-032.396
 1411700000 ,-032.418
 1411850000 ,-032.439
 1412000000 ,-032.457
 1412150000 ,-032.477
 1412300000 ,-032.494
 1412450000 ,-032.510
 1412600000 ,-032.525
 1412750000 ,-032.543
 1412900000 ,-032.564
 1413050000 ,-032.582
 1413200000 ,-032.598
 1413350000 ,-032.613
 1413500000 ,-032.629
 1413650000 ,-032.646
 1413800000 ,-032.660
 1413950000 ,-032.676
 1414100000 ,-032.689
 1414250000 ,-032.703
 1414400000 ,-032.719
 1414550000 ,-032.736
 1414700000 ,-032.754
 1414850000 ,-032.773
